Tracking 19246 objects as of 21-Sep-2018
HD Live streaming from Space Station
objects crossing your sky now

FENGYUN 1C DEB

Track FENGYUN 1C DEB now!
10-day predictions


NORAD ID: 32317
Int'l Code: 1999-025CXJ
Perigee: 697.6 km
Apogee: 917.8 km
Inclination: 98.0 °
Period: 100.9 minutes
Semi major axis: 7178 km
RCS: 0.0099 m2 (small)
Launch date: May 10, 1999
Source: People's Republic of China (PRC)
Launch site: Taiyaun Space Center, China (TSC)

Note: This is SATELLITE DEBRIS
aabbcc
Your satellite tracking list
Your tracking list is empty




NASA's NSSDC Master Catalog

Two Line Element Set (TLE):
1 32317U 99025CXJ 18256.74616061 +.00001051 +00000-0 +39283-3 0  9999
2 32317 097.9863 242.0601 0153371 025.9446 334.9324 14.27370141576247
Source of the keplerian elements: AFSPC